• In Lithuania
  • List of Countries
  • For 7 days
  • Water Temperature
  • Satellite Maps
  • Weather Map
  • Weather Widgets
  • user-avatar
    Login

    Hourly Weather Primorsko

    Today, 22 October, Sunday

    Time Temperature Precipitation Wind Pressure Humidity
    00:00 +18°C° 0 mm 2 mps 759 mmHg 51%
    01:00 +18°C° 0 mm 2 mps 759 mmHg 51%
    02:00 +18°C° 0 mm 2 mps 759 mmHg 50%
    03:00 +18°C° 0 mm 2 mps 759 mmHg 51%
    04:00 +17°C° 0 mm 2 mps 759 mmHg 52%
    05:00 +17°C° 0 mm 3 mps 759 mmHg 53%
    06:00 +18°C° 0 mm 3 mps 759 mmHg 52%
    07:00 +18°C° 0 mm 3 mps 759 mmHg 52%
    08:00 +19°C° 0 mm 4 mps 759 mmHg 52%
    09:00 +20°C° 0 mm 4 mps 760 mmHg 49%
    10:00 +21°C° 0 mm 4 mps 760 mmHg 46%
    11:00 +22°C° 0 mm 4 mps 760 mmHg 43%
    12:00 +23°C° 0 mm 4 mps 760 mmHg 43%
    13:00 +23°C° 0 mm 4 mps 760 mmHg 42%
    14:00 +24°C° 0 mm 3 mps 760 mmHg 42%
    15:00 +22°C° 0 mm 4 mps 760 mmHg 49%
    16:00 +20°C° 0 mm 4 mps 760 mmHg 56%
    17:00 +19°C° 0 mm 4 mps 760 mmHg 62%
    18:00 +18°C° 0 mm 4 mps 760 mmHg 68%
    19:00 +17°C° 0 mm 3 mps 760 mmHg 73%
    20:00 +16°C° 0 mm 3 mps 760 mmHg 79%
    21:00 +16°C° 0 mm 3 mps 760 mmHg 81%
    22:00 +14°C° 0 mm 3 mps 760 mmHg 82%
    23:00 +14°C° 0 mm 4 mps 760 mmHg 84%

    Tomorrow, 23 October, Monday

    Time Temperature Precipitation Wind Pressure Humidity
    00:00 +14°C° 0 mm 4 mps 760 mmHg 86%
    01:00 +14°C° 0 mm 4 mps 760 mmHg 87%
    02:00 +14°C° 0 mm 4 mps 759 mmHg 89%
    03:00 +14°C° 0 mm 4 mps 759 mmHg 91%
    04:00 +13°C° 0 mm 4 mps 758 mmHg 92%
    05:00 +13°C° 0 mm 4 mps 758 mmHg 93%
    06:00 +14°C° 0 mm 4 mps 757 mmHg 92%
    07:00 +15°C° 0 mm 5 mps 757 mmHg 90%
    08:00 +15°C° 0 mm 5 mps 757 mmHg 88%
    09:00 +17°C° 0 mm 5 mps 756 mmHg 80%
    10:00 +19°C° 0 mm 5 mps 756 mmHg 72%
    11:00 +21°C° 0 mm 6 mps 756 mmHg 64%
    12:00 +22°C° 0 mm 5 mps 755 mmHg 59%
    13:00 +23°C° 0 mm 5 mps 754 mmHg 55%
    14:00 +23°C° 0 mm 5 mps 754 mmHg 51%
    15:00 +22°C° 0 mm 5 mps 754 mmHg 53%
    16:00 +21°C° 0 mm 5 mps 753 mmHg 56%
    17:00 +21°C° 0 mm 5 mps 753 mmHg 59%
    18:00 +20°C° 0 mm 4 mps 753 mmHg 62%
    19:00 +19°C° 0 mm 4 mps 753 mmHg 65%
    20:00 +18°C° 0 mm 4 mps 753 mmHg 68%
    21:00 +18°C° 0 mm 4 mps 752 mmHg 70%
    22:00 +18°C° 0 mm 4 mps 752 mmHg 72%
    23:00 +17°C° 0 mm 4 mps 752 mmHg 74%

    Day after tomorrow, 24 October, Tuesday

    Time Temperature Precipitation Wind Pressure Humidity
    00:00 +17°C° 0 mm 4 mps 752 mmHg 72%
    01:00 +17°C° 0 mm 4 mps 752 mmHg 70%
    02:00 +17°C° 0 mm 4 mps 751 mmHg 68%
    03:00 +17°C° 0.2 mm 4 mps 751 mmHg 72%
    04:00 +17°C° 0.2 mm 4 mps 751 mmHg 76%
    05:00 +17°C° 0.2 mm 4 mps 751 mmHg 80%
    06:00 +17°C° 1.4 mm 4 mps 751 mmHg 80%
    07:00 +16°C° 1.4 mm 5 mps 752 mmHg 80%
    08:00 +17°C° 1.4 mm 5 mps 752 mmHg 80%
    09:00 +19°C° 0.2 mm 5 mps 752 mmHg 73%
    10:00 +20°C° 0.2 mm 5 mps 753 mmHg 66%
    11:00 +22°C° 0.2 mm 6 mps 753 mmHg 59%
    12:00 +21°C° 0.5 mm 6 mps 753 mmHg 62%
    13:00 +20°C° 0.5 mm 6 mps 754 mmHg 65%
    14:00 +20°C° 0.5 mm 6 mps 754 mmHg 68%
    15:00 +19°C° 0.1 mm 5 mps 754 mmHg 71%
    16:00 +18°C° 0.1 mm 4 mps 754 mmHg 74%
    17:00 +18°C° 0.1 mm 3 mps 755 mmHg 78%
    18:00 +18°C° 0 mm 4 mps 755 mmHg 79%
    19:00 +16°C° 0 mm 5 mps 756 mmHg 81%
    20:00 +16°C° 0 mm 6 mps 756 mmHg 82%
    21:00 +16°C° 0.1 mm 6 mps 756 mmHg 83%
    22:00 +17°C° 0.1 mm 6 mps 757 mmHg 83%
    23:00 +17°C° 0.1 mm 7 mps 757 mmHg 84%

    25 October, Wednesday

    Time Temperature Precipitation Wind Pressure Humidity
    00:00 +17°C° 0.4 mm 7 mps 757 mmHg 85%
    01:00 +16°C° 0.4 mm 8 mps 758 mmHg 87%
    02:00 +16°C° 0.4 mm 9 mps 758 mmHg 88%
    03:00 +16°C° 0.6 mm 9 mps 758 mmHg 88%
    04:00 +14°C° 0.6 mm 10 mps 759 mmHg 88%
    05:00 +14°C° 0.6 mm 10 mps 759 mmHg 88%
    06:00 +14°C° 0.1 mm 10 mps 759 mmHg 87%
    07:00 +13°C° 0.1 mm 10 mps 760 mmHg 86%
    08:00 +13°C° 0.1 mm 10 mps 761 mmHg 85%
    09:00 +13°C° 0.1 mm 10 mps 761 mmHg 83%
    10:00 +13°C° 0.1 mm 9 mps 762 mmHg 82%
    11:00 +12°C° 0.1 mm 9 mps 763 mmHg 80%
    12:00 +13°C° 0.1 mm 9 mps 763 mmHg 78%
    13:00 +13°C° 0.1 mm 9 mps 763 mmHg 76%
    14:00 +13°C° 0.1 mm 9 mps 763 mmHg 74%
    15:00 +13°C° 0 mm 9 mps 764 mmHg 74%
    16:00 +13°C° 0 mm 9 mps 764 mmHg 73%
    17:00 +12°C° 0 mm 9 mps 765 mmHg 73%
    18:00 +12°C° 0.1 mm 9 mps 765 mmHg 73%
    19:00 +12°C° 0.1 mm 9 mps 766 mmHg 73%
    20:00 +12°C° 0.1 mm 8 mps 766 mmHg 73%
    21:00 +11°C° 0.1 mm 8 mps 767 mmHg 74%
    22:00 +11°C° 0.1 mm 8 mps 767 mmHg 75%
    23:00 +11°C° 0.1 mm 8 mps 767 mmHg 76%

    26 October, Thursday

    Time Temperature Precipitation Wind Pressure Humidity
    00:00 +10°C° 0.1 mm 8 mps 768 mmHg 77%
    01:00 +10°C° 0.1 mm 7 mps 768 mmHg 77%
    02:00 +10°C° 0.1 mm 7 mps 768 mmHg 78%
    03:00 +9°C° 0 mm 6 mps 768 mmHg 78%
    04:00 +9°C° 0 mm 6 mps 768 mmHg 78%
    05:00 +9°C° 0 mm 6 mps 768 mmHg 78%
    06:00 +9°C° 0 mm 6 mps 769 mmHg 75%
    07:00 +9°C° 0 mm 6 mps 769 mmHg 73%
    08:00 +9°C° 0 mm 5 mps 769 mmHg 70%
    09:00 +12°C° 0 mm 5 mps 769 mmHg 65%
    10:00 +13°C° 0 mm 4 mps 769 mmHg 59%
    11:00 +15°C° 0 mm 4 mps 769 mmHg 54%
    12:00 +16°C° 0 mm 3 mps 769 mmHg 52%
    13:00 +17°C° 0 mm 3 mps 768 mmHg 51%
    14:00 +17°C° 0 mm 2 mps 768 mmHg 49%
    15:00 +17°C° 0 mm 2 mps 767 mmHg 53%
    16:00 +16°C° 0 mm 2 mps 767 mmHg 57%
    17:00 +15°C° 0 mm 1 mps 767 mmHg 61%
    18:00 +14°C° 0 mm 2 mps 767 mmHg 63%
    19:00 +13°C° 0 mm 2 mps 767 mmHg 65%
    20:00 +13°C° 0 mm 2 mps 767 mmHg 68%
    21:00 +13°C° 0 mm 2 mps 767 mmHg 68%
    22:00 +12°C° 0 mm 2 mps 767 mmHg 69%
    23:00 +12°C° 0 mm 2 mps 767 mmHg 70%

    27 October, Friday

    Time Temperature Precipitation Wind Pressure Humidity
    00:00 +12°C° 0 mm 2 mps 767 mmHg 72%
    01:00 +12°C° 0 mm 2 mps 766 mmHg 73%
    02:00 +12°C° 0 mm 2 mps 766 mmHg 74%
    03:00 +10°C° 0 mm 2 mps 766 mmHg 76%
    04:00 +10°C° 0 mm 2 mps 766 mmHg 78%
    05:00 +10°C° 0 mm 3 mps 765 mmHg 80%
    06:00 +11°C° 0 mm 3 mps 765 mmHg 78%
    07:00 +11°C° 0 mm 3 mps 765 mmHg 76%
    08:00 +12°C° 0 mm 3 mps 765 mmHg 74%
    09:00 +14°C° 0 mm 3 mps 765 mmHg 65%
    10:00 +17°C° 0 mm 2 mps 765 mmHg 57%
    11:00 +19°C° 0 mm 2 mps 764 mmHg 49%
    12:00 +20°C° 0 mm 2 mps 764 mmHg 47%
    13:00 +21°C° 0 mm 2 mps 763 mmHg 45%
    14:00 +21°C° 0 mm 2 mps 763 mmHg 43%
    15:00 +20°C° 0 mm 2 mps 762 mmHg 47%
    16:00 +19°C° 0 mm 3 mps 762 mmHg 52%
    17:00 +18°C° 0 mm 3 mps 762 mmHg 56%
    18:00 +17°C° 0 mm 3 mps 761 mmHg 58%
    19:00 +16°C° 0 mm 3 mps 761 mmHg 60%
    20:00 +14°C° 0 mm 3 mps 761 mmHg 63%
    21:00 +14°C° 0 mm 3 mps 761 mmHg 64%
    22:00 +13°C° 0 mm 3 mps 760 mmHg 65%
    23:00 +13°C° 0 mm 3 mps 760 mmHg 66%
    Show more